User: anonymous   Login
Location: Prairie State College
(41.5244°N, 87.6382°W)
Time: 22:41:41
(UTC-06:00)
Language:

ARGOS Delta rocket - Orbit

View from above orbital plane
View from above orbital plane
View from above satellite
View from above satellite

Ground track
Ground track

The orbit data is extracted from the following two-line orbital elements,

1 25637U 99008D   15061.22537492  .00000488  00000-0  12720-3 0  9991
2 25637 096.4814 147.6614 0144805 066.9982 345.9752 14.46194276844485
Epoch (UTC): 02 March 2015 05:24:32
Eccentricity: 0.0144805
inclination: 96.4814°
perigee height: 635 km
apogee height: 841 km
right ascension of ascending node: 147.6614°
argument of perigee: 66.9982°
revolutions per day: 14.46194276
mean anomaly at epoch: 345.9752°
orbit number at epoch: 84448

The dashed part of the orbit path shows where the satellite is in the earth's shadow,  

DLR